When you browse on this site, cookies collect data to enhance your experience and personalize the content and advertising you see.
Visit our Privacy Policy to learn more. By continuing to use the site, you agree to this use of cookies and data.
  • In Hungary
  • List of Countries
  • For 7 days
  • Water Temperature
  • Satellite Maps
  • Weather Map
  • News
  • Weather Widgets
  • user-avatar
    Login

    Hourly Weather Nowy Targ

    Today, 19 June, Wednesday

    Time Temperature Precipitation Wind Pressure Humidity
    00:00 +16°C° 0 mm 1 mps 710 mmHg 94%
    01:00 +15°C° 0 mm 1 mps 710 mmHg 93%
    02:00 +15°C° 0 mm 1 mps 710 mmHg 93%
    03:00 +15°C° 0 mm 1 mps 709 mmHg 93%
    04:00 +15°C° 0 mm 1 mps 709 mmHg 92%
    05:00 +18°C° 0 mm 1 mps 709 mmHg 89%
    06:00 +17°C° 0 mm 0 mps 710 mmHg 86%
    07:00 +21°C° 0 mm 1 mps 710 mmHg 80%
    08:00 +23°C° 0.1 mm 1 mps 710 mmHg 71%
    09:00 +23°C° 0.1 mm 0 mps 710 mmHg 62%
    10:00 +25°C° 0.1 mm 0 mps 710 mmHg 52%
    11:00 +27°C° 0.4 mm 1 mps 710 mmHg 54%
    12:00 +27°C° 0.4 mm 1 mps 710 mmHg 56%
    13:00 +27°C° 0.4 mm 1 mps 709 mmHg 58%
    14:00 +26°C° 0.6 mm 1 mps 709 mmHg 65%
    15:00 +25°C° 0.6 mm 1 mps 708 mmHg 72%
    16:00 +24°C° 0.6 mm 1 mps 708 mmHg 80%
    17:00 +21°C° 0.4 mm 0 mps 708 mmHg 82%
    18:00 +20°C° 0.4 mm 0 mps 708 mmHg 84%
    19:00 +19°C° 0.4 mm 0 mps 707 mmHg 86%
    20:00 +19°C° 0.1 mm 0 mps 707 mmHg 86%
    21:00 +20°C° 0.1 mm 1 mps 707 mmHg 87%
    22:00 +19°C° 0.1 mm 1 mps 707 mmHg 88%
    23:00 +18°C° 0 mm 1 mps 707 mmHg 88%

    Tomorrow, 20 June, Thursday

    Time Temperature Precipitation Wind Pressure Humidity
    00:00 +18°C° 0 mm 1 mps 707 mmHg 88%
    01:00 +16°C° 0 mm 1 mps 707 mmHg 88%
    02:00 +16°C° 0 mm 1 mps 707 mmHg 88%
    03:00 +16°C° 0 mm 1 mps 707 mmHg 88%
    04:00 +16°C° 0 mm 1 mps 707 mmHg 88%
    05:00 +19°C° 0 mm 1 mps 707 mmHg 83%
    06:00 +19°C° 0 mm 0 mps 708 mmHg 79%
    07:00 +20°C° 0 mm 0 mps 708 mmHg 75%
    08:00 +22°C° 0.4 mm 0 mps 708 mmHg 71%
    09:00 +23°C° 0.4 mm 0 mps 708 mmHg 68%
    10:00 +27°C° 0.4 mm 1 mps 708 mmHg 65%
    11:00 +24°C° 1.3 mm 0 mps 708 mmHg 67%
    12:00 +24°C° 1.3 mm 0 mps 708 mmHg 70%
    13:00 +23°C° 1.3 mm 0 mps 708 mmHg 73%
    14:00 +23°C° 0.6 mm 0 mps 708 mmHg 74%
    15:00 +23°C° 0.6 mm 0 mps 708 mmHg 76%
    16:00 +23°C° 0.6 mm 0 mps 708 mmHg 78%
    17:00 +22°C° 0.4 mm 0 mps 707 mmHg 81%
    18:00 +21°C° 0.4 mm 0 mps 707 mmHg 84%
    19:00 +20°C° 0.4 mm 0 mps 707 mmHg 88%
    20:00 +19°C° 0.1 mm 0 mps 707 mmHg 88%
    21:00 +20°C° 0.1 mm 1 mps 707 mmHg 89%
    22:00 +19°C° 0.1 mm 1 mps 708 mmHg 90%
    23:00 +19°C° 0 mm 1 mps 708 mmHg 90%

    Day after tomorrow, 21 June, Friday

    Time Temperature Precipitation Wind Pressure Humidity
    00:00 +18°C° 0 mm 1 mps 708 mmHg 90%
    01:00 +18°C° 0 mm 1 mps 708 mmHg 90%
    02:00 +18°C° 0 mm 1 mps 708 mmHg 90%
    03:00 +16°C° 0 mm 1 mps 708 mmHg 91%
    04:00 +15°C° 0 mm 0 mps 708 mmHg 91%
    05:00 +17°C° 0 mm 0 mps 708 mmHg 87%
    06:00 +18°C° 0 mm 0 mps 709 mmHg 83%
    07:00 +20°C° 0 mm 0 mps 709 mmHg 79%
    08:00 +21°C° 0.9 mm 0 mps 709 mmHg 78%
    09:00 +24°C° 0.9 mm 1 mps 710 mmHg 78%
    10:00 +25°C° 0.9 mm 1 mps 710 mmHg 77%
    11:00 +25°C° 1.6 mm 1 mps 710 mmHg 77%
    12:00 +25°C° 1.6 mm 1 mps 709 mmHg 78%
    13:00 +25°C° 1.6 mm 1 mps 709 mmHg 78%
    14:00 +24°C° 1.6 mm 1 mps 709 mmHg 82%
    15:00 +24°C° 1.6 mm 1 mps 709 mmHg 86%
    16:00 +23°C° 1.6 mm 1 mps 709 mmHg 89%
    17:00 +22°C° 0.4 mm 1 mps 709 mmHg 90%
    18:00 +22°C° 0.4 mm 1 mps 709 mmHg 92%
    19:00 +21°C° 0.4 mm 1 mps 709 mmHg 93%
    20:00 +20°C° 0.1 mm 1 mps 709 mmHg 93%
    21:00 +17°C° 0.1 mm 0 mps 709 mmHg 94%
    22:00 +16°C° 0.1 mm 0 mps 710 mmHg 95%
    23:00 +16°C° 0 mm 0 mps 710 mmHg 95%

    22 June, Saturday

    Time Temperature Precipitation Wind Pressure Humidity
    00:00 +16°C° 0 mm 0 mps 710 mmHg 95%
    01:00 +15°C° 0 mm 0 mps 710 mmHg 96%
    02:00 +15°C° 0.3 mm 0 mps 710 mmHg 96%
    03:00 +15°C° 0.3 mm 0 mps 710 mmHg 97%
    04:00 +15°C° 0.3 mm 0 mps 710 mmHg 98%
    05:00 +18°C° 0.2 mm 1 mps 710 mmHg 96%
    06:00 +19°C° 0.2 mm 1 mps 711 mmHg 95%
    07:00 +20°C° 0.2 mm 1 mps 711 mmHg 94%
    08:00 +20°C° 0.3 mm 1 mps 711 mmHg 94%
    09:00 +20°C° 0.3 mm 1 mps 711 mmHg 93%
    10:00 +19°C° 0.3 mm 2 mps 711 mmHg 93%
    11:00 +20°C° 0.4 mm 2 mps 711 mmHg 93%
    12:00 +20°C° 0.4 mm 2 mps 711 mmHg 93%
    13:00 +20°C° 0.4 mm 2 mps 711 mmHg 93%
    14:00 +20°C° 1.6 mm 2 mps 710 mmHg 94%
    15:00 +20°C° 1.6 mm 2 mps 710 mmHg 94%
    16:00 +20°C° 1.6 mm 2 mps 710 mmHg 94%
    17:00 +20°C° 0.5 mm 2 mps 710 mmHg 95%
    18:00 +19°C° 0.5 mm 2 mps 710 mmHg 97%
    19:00 +19°C° 0.5 mm 2 mps 710 mmHg 98%
    20:00 +19°C° 0.4 mm 1 mps 710 mmHg 98%
    21:00 +19°C° 0.4 mm 1 mps 710 mmHg 98%
    22:00 +18°C° 0.4 mm 1 mps 710 mmHg 98%
    23:00 +18°C° 0 mm 1 mps 710 mmHg 98%

    23 June, Sunday

    Time Temperature Precipitation Wind Pressure Humidity
    00:00 +18°C° 0 mm 1 mps 710 mmHg 99%
    01:00 +18°C° 0 mm 1 mps 709 mmHg 99%
    02:00 +14°C° 0 mm 0 mps 708 mmHg 96%
    03:00 +15°C° 0 mm 1 mps 707 mmHg 96%
    04:00 +15°C° 0 mm 1 mps 707 mmHg 96%
    05:00 +16°C° 0 mm 1 mps 708 mmHg 93%
    06:00 +19°C° 0 mm 1 mps 708 mmHg 90%
    07:00 +21°C° 0 mm 1 mps 708 mmHg 87%
    08:00 +21°C° 0.6 mm 1 mps 708 mmHg 86%
    09:00 +21°C° 0.6 mm 1 mps 709 mmHg 86%
    10:00 +22°C° 0.6 mm 1 mps 709 mmHg 85%
    11:00 +20°C° 0.7 mm 2 mps 709 mmHg 88%
    12:00 +19°C° 0.7 mm 2 mps 709 mmHg 91%
    13:00 +18°C° 0.7 mm 3 mps 709 mmHg 94%
    14:00 +18°C° 0.1 mm 3 mps 709 mmHg 91%
    15:00 +17°C° 0.1 mm 3 mps 709 mmHg 89%
    16:00 +17°C° 0.1 mm 3 mps 709 mmHg 87%
    17:00 +16°C° 0 mm 3 mps 710 mmHg 88%
    18:00 +16°C° 0 mm 3 mps 710 mmHg 89%
    19:00 +14°C° 0 mm 3 mps 710 mmHg 90%
    20:00 +14°C° 0.2 mm 3 mps 710 mmHg 91%
    21:00 +13°C° 0.2 mm 3 mps 711 mmHg 93%
    22:00 +13°C° 0.2 mm 3 mps 711 mmHg 94%
    23:00 +14°C° 0.4 mm 2 mps 711 mmHg 95%

    24 June, Monday

    Time Temperature Precipitation Wind Pressure Humidity
    00:00 +14°C° 0.4 mm 2 mps 712 mmHg 97%
    01:00 +13°C° 0.4 mm 2 mps 712 mmHg 98%
    02:00 +13°C° 0.9 mm 2 mps 712 mmHg 98%
    03:00 +13°C° 0.9 mm 2 mps 712 mmHg 98%
    04:00 +13°C° 0.9 mm 2 mps 712 mmHg 98%
    05:00 +13°C° 0.3 mm 2 mps 713 mmHg 98%
    06:00 +13°C° 0.3 mm 2 mps 713 mmHg 98%
    07:00 +13°C° 0.3 mm 2 mps 713 mmHg 97%
    08:00 +13°C° 0 mm 2 mps 714 mmHg 96%
    09:00 +14°C° 0 mm 2 mps 714 mmHg 94%
    10:00 +14°C° 0 mm 2 mps 714 mmHg 92%
    11:00 +15°C° 0 mm 2 mps 715 mmHg 86%
    12:00 +16°C° 0 mm 2 mps 715 mmHg 80%
    13:00 +17°C° 0 mm 2 mps 715 mmHg 74%
    14:00 +18°C° 0 mm 2 mps 715 mmHg 68%
    15:00 +19°C° 0 mm 3 mps 715 mmHg 63%
    16:00 +20°C° 0 mm 3 mps 715 mmHg 58%
    17:00 +18°C° 0 mm 3 mps 715 mmHg 66%
    18:00 +17°C° 0 mm 2 mps 715 mmHg 74%
    19:00 +16°C° 0 mm 2 mps 715 mmHg 82%
    20:00 +14°C° 0 mm 1 mps 715 mmHg 85%
    21:00 +13°C° 0 mm 1 mps 716 mmHg 89%
    22:00 +12°C° 0 mm 1 mps 716 mmHg 93%
    23:00 +12°C° 0 mm 1 mps 716 mmHg 93%
    Show more